Simultaneous Nadir Overpasses (SNOs) Predictions

Prediction of SNOs between FY3D and METOP-C Satellite Orbit:

Table of predicted SNOs for the next 14.0 days since TLE Epoch: 3/2/2024
Index Date (FY3D) Time (FY3D) Lat,Lon (FY3D) SZA (FY3D ) Date (METOP-C) Time (METOP-C) Lat,Lon (METOP-C) SZA (METOP-C ) Distance(km) Time Diff (sec)
1 03/02/2024 20:57:53 76.15,-137.81 82.92 03/02/2024 20:58:58 76.13,-134.32 82.83 92.95 65
2 03/02/2024 21:48:36 -76.06, 29.82 97.19 03/02/2024 21:49:43 -76.02, 32.61 97.30 75.02 67
3 03/02/2024 22:39:16 75.79,-161.92 82.50 03/02/2024 22:40:28 75.74,-160.96 82.43 26.84 72
4 03/02/2024 23:29:59 -75.70, 5.69 97.61 03/02/2024 23:31:13 -75.63, 5.99 97.70 11.96 74
5 03/03/2024 00:20:43 75.61, 173.31 82.28 03/03/2024 00:21:52 75.63, 173.34 82.30 2.65 69
6 03/03/2024 01:11:27 -75.61, -19.39 97.73 03/03/2024 01:12:34 -75.61, -19.41 97.74 0.57 67
7 03/03/2024 02:02:13 75.61, 147.93 82.25 03/03/2024 02:03:13 75.61, 147.94 82.25 0.41 60
8 03/03/2024 02:52:58 -75.61, -44.77 97.76 03/03/2024 02:53:56 -75.59, -44.81 97.79 2.77 58
9 03/03/2024 03:43:44 75.61, 122.55 82.23 03/03/2024 03:44:35 75.59, 122.54 82.21 1.93 51
10 03/03/2024 04:34:29 -75.61, -70.15 97.79 03/03/2024 04:35:17 -75.61, -70.06 97.79 2.57 48
11 03/03/2024 05:25:15 75.61, 97.17 82.20 03/03/2024 05:25:56 75.62, 97.29 82.20 3.39 41
12 03/03/2024 06:16:00 -75.61, -95.53 97.81 03/03/2024 06:16:39 -75.60, -95.46 97.83 2.66 39
13 03/03/2024 07:06:46 75.61, 71.79 82.17 03/03/2024 07:07:18 75.60, 71.89 82.16 2.86 32
14 03/03/2024 07:57:30 -75.57,-120.76 97.89 03/03/2024 07:58:01 -75.58,-120.86 97.88 2.96 31
15 03/03/2024 08:48:16 75.56, 46.56 82.10 03/03/2024 08:48:40 75.58, 46.49 82.11 2.78 24
16 03/03/2024 09:39:01 -75.57,-146.14 97.92 03/03/2024 09:39:23 -75.56,-146.26 97.92 3.44 22
17 03/03/2024 10:29:47 75.56, 21.18 82.07 03/03/2024 10:30:02 75.56, 21.09 82.07 2.70 15
18 03/03/2024 11:20:32 -75.57,-171.52 97.94 03/03/2024 11:20:44 -75.59,-171.51 97.93 1.98 12
19 03/03/2024 12:11:18 75.56, -4.20 82.05 03/03/2024 12:11:23 75.59, -4.17 82.07 2.75 5
20 03/03/2024 13:02:03 -75.57, 163.10 97.97 03/03/2024 13:02:06 -75.57, 163.09 97.97 0.40 3
21 03/03/2024 13:52:49 75.56, -29.58 82.02 03/03/2024 13:52:45 75.57, -29.57 82.02 0.48 4
22 03/03/2024 14:43:34 -75.57, 137.72 98.00 03/03/2024 14:43:28 -75.55, 137.69 98.02 2.59 6
23 03/03/2024 15:34:20 75.57, -54.96 81.99 03/03/2024 15:34:07 75.55, -54.97 81.98 1.85 13
24 03/03/2024 16:25:05 -75.57, 112.34 98.02 03/03/2024 16:24:49 -75.57, 112.44 98.02 2.70 16
25 03/03/2024 17:15:51 75.57, -80.34 81.97 03/03/2024 17:15:28 75.58, -80.22 81.98 3.42 23
26 03/03/2024 18:06:36 -75.57, 86.96 98.05 03/03/2024 18:06:11 -75.56, 87.04 98.06 2.66 25
27 03/03/2024 18:57:22 75.57,-105.72 81.94 03/03/2024 18:56:50 75.56,-105.62 81.93 2.84 32
28 03/03/2024 19:48:06 -75.52, 61.73 98.12 03/03/2024 19:47:33 -75.54, 61.64 98.11 2.90 33
29 03/03/2024 20:38:52 75.52,-130.95 81.86 03/03/2024 20:38:12 75.54,-131.02 81.89 2.81 40
30 03/03/2024 21:29:37 -75.53, 36.35 98.15 03/03/2024 21:28:55 -75.52, 36.24 98.15 3.28 42
31 03/03/2024 22:20:23 75.52,-156.33 81.84 03/03/2024 22:19:34 75.52,-156.42 81.84 2.66 49
32 03/03/2024 23:11:08 -75.53, 10.97 98.18 03/03/2024 23:10:16 -75.54, 10.98 98.15 2.11 52
33 03/04/2024 00:01:54 75.52, 178.29 81.81 03/04/2024 00:00:55 75.55, 178.32 81.84 2.80 59
34 03/04/2024 00:52:39 -75.53, -14.41 98.20 03/04/2024 00:51:38 -75.53, -14.42 98.20 0.23 61
35 03/04/2024 01:43:25 75.52, 152.91 81.78 03/04/2024 01:42:17 75.53, 152.92 81.79 0.52 68
36 03/04/2024 02:34:10 -75.53, -39.79 98.23 03/04/2024 02:33:00 -75.51, -39.82 98.24 2.46 70
37 03/04/2024 03:24:54 75.43, 127.83 81.66 03/04/2024 03:23:41 75.41, 127.23 81.66 16.79 73
38 03/04/2024 04:15:37 -75.34, -64.58 98.45 03/04/2024 04:14:25 -75.35, -65.65 98.42 29.93 72
39 03/04/2024 05:06:17 75.06, 103.60 81.24 03/04/2024 05:05:10 75.06, 100.85 81.30 78.88 67
40 03/04/2024 05:57:00 -74.97, -88.83 98.87 03/04/2024 05:55:55 -74.95, -92.15 98.82 95.95 65



Historial Predications of SNOs between FY3D and METOP-C
